RH
10 11 11 9 7 3 3 3 2 1 2 2 2 6 8 6 5 6 6 4 4 2 7 85 89 94 93 94 96 96 95 95 39 22 7 5 5 6 6 10 13 16 15
10 12 11 8 4 4 2 2 2 3 4 3 2 4 8 7 5 5 6 5 5 2 2 42 93 96 97 95 95 96 95 90 46 20 8 6 6 6 6 8 13 18 17
13 13 10 4 4 3 2 5 8 10 5 5 4 2 7 8 6 5 6 6 5 3 2 18 86 97 96 97 96 96 95 94 56 21 8 6 6 6 6 6 10 16 18
16 13 6 4 3 3 6 13 23 15 12 11 12 4 2 10 7 5 5 6 5 4 3 3 75 97 95 97 96 97 92 96 74 28 10 6 6 6 6 6 7 12 16
16 9 5 3 3 7 16 30 34 23 22 23 14 9 2 8 9 6 5 6 4 5 4 2 68 98 98 96 97 98 83 89 84 37 12 6 6 6 6 5 5 7 13
14 7 4 3 7 15 31 41 42 34 31 29 27 11 5 3 10 6 6 5 4 5 4 2 43 92 97 97 95 97 85 77 85 53 12 6 6 7 6 6 6 5 10
11 6 4 4 12 27 39 44 42 35 33 35 32 20 6 3 9 7 6 4 5 4 4 2 28 91 97 96 96 98 92 81 82 68 14 7 7 7 6 7 6 5 7
10 6 3 7 15 34 40 44 33 31 37 40 37 27 17 6 5 8 6 4 5 4 4 2 15 91 91 98 96 95 93 81 76 76 24 8 7 7 7 8 7 6 5
9 5 4 10 24 38 46 38 27 34 36 44 41 34 13 4 3 7 6 4 5 4 3 3 3 74 91 94 94 94 97 83 73 76 42 9 8 7 8 8 7 6 5
8 4 6 10 33 40 54 26 40 36 54 44 44 83 15 5 2 7 6 5 5 4 4 3 4 82 98 96 96 95 96 88 73 72 55 10 8 7 9 9 8 8 6
8 4 7 11 38 44 57 36 37 48 56 51 98 91 13 15 3 5 6 5 6 5 4 4 3 78 95 97 96 89 96 92 76 67 66 14 10 7 9 10 10 9 8
8 3 8 12 41 49 51 36 80 65 64 68 76 100 91 97 16 5 6 6 6 6 5 5 4 83 95 96 96 97 95 94 78 65 69 35 11 8 8 10 10 10 10
8 3 7 12 41 47 52 56 75 84 71 82 64 42 96 96 87 4 6 7 6 6 4 4 10 86 97 97 97 95 96 92 81 65 65 74 30 10 8 10 11 11 12
8 3 7 11 38 47 57 76 60 70 72 73 72 35 90 99 32 4 6 7 7 5 5 3 32 78 97 97 91 94 96 94 85 68 51 56 57 27 8 9 10 11 11
9 4 8 10 29 40 54 79 32 64 34 65 66 57 50 98 9 5 6 7 8 5 6 3 48 94 96 96 95 96 95 93 86 74 49 43 51 48 26 9 9 11 11
11 4 9 10 15 29 37 56 38 55 36 40 62 62 58 86 9 6 7 8 8 6 5 4 20 92 97 96 89 98 95 96 86 84 54 47 47 44 45 30 11 9 10
13 6 8 10 11 23 25 53 49 49 37 27 56 53 100 33 9 6 7 9 7 7 6 3 55 96 96 96 84 90 94 93 89 93 66 48 38 30 34 44 37 17 10
15 9 6 10 10 13 19 45 43 49 34 26 45 46 29 54 10 8 10 9 7 8 5 4 86 96 97 97 100 80 81 94 96 96 80 48 37 24 18 22 36 40 30
19 14 5 9 9 10 17 32 44 44 33 30 41 39 85 17 9 10 10 8 7 6 3 65 98 97 97 97 87 89 96 97 98 97 71 52 45 31 18 16 22 32 42
22 17 7 8 9 9 12 23 44 48 35 33 41 42 89 10 8 9 9 8 6 4 5 40 95 99 98 96 97 94 90 94 96 96 80 55 50 37 23 16 20 31 32
25 20 16 5 10 12 14 21 32 47 46 36 49 48 83 8 8 8 8 7 6 4 5 92 99 97 97 96 97 96 96 87 89 96 90 57 50 46 33 15 17 19 16
29 24 21 10 7 10 13 13 23 44 45 43 42 58 84 9 7 7 7 7 5 4 63 95 98 97 97 97 96 94 96 97 92 94 93 65 50 49 35 22 14 14 14
33 30 26 20 5 9 11 15 19 25 47 46 41 61 100 18 7 6 6 6 5 8 83 97 97 97 98 97 93 90 96 98 94 88 96 82 55 48 42 26 15 14 15
37 37 32 25 16 4 9 12 16 19 23 45 47 47 77 64 16 8 6 5 4 23 87 96 98 97 96 96 97 96 86 96 97 100 95 100 96 74 53 50 25 16 16
42 42 40 32 23 12 5 9 15 17 19 24 43 44 51 48 72 17 8 10 5 32 94 97 98 97 97 94 97 98 97 97 100 100 96 97 98 99 76 59 68 50 18
28 35 42 37 29 21 11 5 9 15 17 21 28 39 42 55 30 48 23 32 20 32 80 95 98 99 98 97 96 96 97 98 100 98 98 98 97 98 92 87 83 67 33
Wind_Speed
56 59 61 63 65 68 74 79 84 86 85 83 80 80 75 71 71 65 64 63 58 58 64 63 53 42 44 61 46 56 55 52 48 45 44 41 38 34 32 30 28 27 26
61 63 65 68 71 77 82 81 74 63 61 61 62 82 83 77 76 72 69 68 62 63 61 64 59 44 47 63 64 58 57 54 52 48 46 43 39 35 33 31 29 28 26
64 66 70 72 77 83 75 64 59 56 49 47 50 57 85 84 79 78 74 71 66 67 63 62 64 63 50 55 66 61 58 57 54 50 48 44 40 37 34 33 31 29 27
66 69 73 77 81 72 60 55 50 42 38 35 38 40 72 87 86 84 79 74 72 71 62 62 69 58 61 57 68 64 61 58 54 51 49 46 42 39 35 34 31 30 27
67 71 75 79 71 57 53 47 39 35 33 31 29 34 47 86 91 90 83 77 75 71 64 64 70 65 66 61 71 65 62 58 56 53 50 48 44 40 36 33 33 31 29
69 73 77 72 58 52 46 40 36 36 33 30 29 26 35 75 94 96 86 79 78 71 67 64 71 67 64 49 74 67 63 61 58 55 52 49 45 41 38 34 32 32 30
70 74 75 61 51 47 42 36 37 33 33 31 28 28 23 51 94 100 88 81 79 72 67 63 71 66 61 59 64 67 65 62 59 57 54 51 47 43 39 34 33 32 31
71 75 69 54 49 44 39 36 37 34 32 26 25 26 24 35 89 101 89 83 79 73 67 67 69 68 63 69 71 69 66 64 61 58 55 52 49 45 40 35 33 32 31
71 73 62 49 46 41 33 37 35 31 28 24 21 20 17 26 77 101 89 85 78 71 68 69 67 69 57 70 77 70 68 65 61 59 56 54 51 46 41 36 32 30 30
71 70 55 45 42 37 35 35 32 30 26 23 17 18 10 19 64 96 89 86 76 71 67 65 65 70 68 60 74 68 69 65 62 60 57 56 52 48 44 38 34 30 29
71 65 49 41 38 33 36 32 33 29 25 21 15 19 7 14 49 92 90 85 77 73 66 64 61 67 73 61 72 74 70 66 63 60 58 57 54 50 46 41 35 31 27
70 60 45 37 34 29 35 31 30 28 25 21 11 11 22 21 36 87 89 83 77 72 67 63 59 68 62 60 75 73 72 68 63 60 58 57 54 51 47 43 37 33 28
68 57 42 34 31 27 32 32 29 27 23 22 14 11 24 17 16 81 86 79 75 70 67 64 61 68 65 80 73 76 70 68 63 59 58 56 55 52 50 46 41 35 31
67 56 40 33 28 27 28 31 28 26 21 20 16 15 13 17 37 70 81 75 71 68 64 60 65 72 67 59 75 71 68 66 63 60 58 55 53 52 50 48 43 38 34
65 57 39 32 26 26 27 28 29 25 23 17 18 18 18 24 43 61 77 70 67 65 62 60 67 70 61 64 77 68 66 66 64 61 57 55 53 51 51 49 46 41 37
65 58 38 32 27 24 25 26 28 23 22 19 17 19 24 26 46 52 70 66 65 62 60 58 60 64 62 66 70 69 65 61 61 61 58 55 52 51 50 50 48 45 41
63 60 38 32 27 24 25 21 24 21 22 19 18 20 28 29 47 52 64 64 61 60 56 56 60 59 55 67 71 69 62 58 59 59 57 55 52 49 48 48 48 46 44
61 62 40 33 29 24 24 21 23 21 22 20 19 22 32 31 45 53 59 60 59 55 51 51 64 58 59 71 69 58 60 54 58 59 56 54 51 49 46 45 46 45 45
58 62 46 34 30 26 24 22 22 21 22 21 21 24 36 34 44 50 55 56 54 52 50 69 63 49 57 62 60 52 50 56 58 59 55 54 51 48 46 45 44 43 43
56 59 54 33 31 29 23 20 20 20 23 23 23 26 35 32 42 49 52 53 54 51 52 55 57 54 61 65 58 52 55 56 56 58 55 54 52 49 46 44 44 43 42
54 57 59 40 31 31 24 17 18 19 23 27 25 28 35 30 39 46 47 50 48 46 49 63 49 57 59 71 57 57 54 54 53 56 51 55 53 53 49 47 45 44 42
53 54 56 54 30 30 28 21 17 20 21 27 26 28 34 30 38 43 43 43 43 44 52 58 50 55 56 56 61 61 55 50 52 51 50 53 53 52 50 46 43 43 43
51 52 54 55 45 29 29 25 18 21 19 25 29 28 34 28 29 35 37 34 38 41 61 50 39 41 56 55 61 61 56 56 52 52 53 51 51 50 49 46 44 43 41
51 51 52 52 53 36 28 26 23 19 21 20 27 28 29 32 25 26 27 28 32 35 59 59 32 38 39 46 58 56 54 59 57 54 53 51 47 47 49 47 46 46 45
50 51 51 51 51 50 30 29 24 23 20 21 19 26 27 29 31 27 26 26 29 34 48 59 40 35 35 44 57 57 55 57 52 53 56 51 50 46 49 50 49 48 48
49 51 50 50 50 51 49 30 29 22 22 20 20 20 24 25 27 33 30 28 31 34 45 51 38 35 38 44 54 50 59 63 54 54 59 58 54 53 53 51 49 54 53
Wind_Direction
319 318 314 311 310 309 306 304 299 288 278 268 254 241 237 235 235 230 228 226 218 217 223 217 213 201 196 181 198 186 178 180 181 183 184 183 180 180 180 182 183 180 177
322 321 318 318 316 314 313 307 300 293 285 273 258 235 227 226 227 227 224 223 217 214 218 218 208 200 190 186 189 188 179 179 182 183 183 183 182 183 181 183 184 181 178
326 325 323 323 322 321 315 310 305 301 293 279 262 241 223 218 218 223 220 220 216 213 214 213 207 205 202 183 189 185 179 182 181 182 182 182 183 185 183 185 186 183 180
329 327 328 328 327 322 317 315 313 310 305 292 270 246 221 213 213 217 216 215 215 211 209 208 207 205 192 196 189 184 182 182 181 183 182 183 183 186 184 186 188 185 182
331 332 333 332 328 323 322 321 319 316 314 310 294 256 225 211 209 212 212 211 211 209 204 203 207 201 207 207 190 186 182 181 182 182 182 183 185 186 185 186 188 187 183
335 336 336 334 329 330 329 328 327 324 322 318 307 284 232 211 206 207 209 207 208 206 201 201 208 201 194 165 190 185 182 182 182 181 183 184 186 187 186 188 188 189 185
339 339 338 334 335 335 333 332 332 329 328 327 317 302 245 218 204 206 204 203 206 204 198 197 204 203 189 183 192 186 182 183 182 182 183 185 186 188 188 189 189 190 187
342 342 340 337 341 340 338 340 339 335 332 330 323 312 290 223 204 204 199 200 203 201 196 196 201 204 197 185 178 185 183 182 182 182 182 185 187 188 187 185 186 189 187
345 345 341 341 345 342 345 344 343 342 340 339 333 328 302 215 203 201 194 198 199 197 195 196 198 206 197 193 182 185 183 182 182 183 183 186 187 188 186 183 184 186 187
347 348 343 346 348 347 351 350 350 349 349 346 348 0 333 201 200 197 190 196 195 194 194 195 196 202 169 184 181 186 182 182 182 183 184 187 187 188 186 184 184 184 185
350 350 346 350 351 354 355 355 355 354 357 358 21 9 37 150 192 194 189 193 192 192 192 193 196 201 198 192 179 188 181 181 183 184 184 187 188 188 187 186 185 185 184
353 352 348 353 357 359 358 358 2 0 2 7 33 35 116 89 190 190 189 190 191 190 190 192 189 201 186 183 184 184 182 180 183 184 185 188 189 190 188 188 187 188 186
355 355 352 357 1 3 3 6 6 5 10 19 36 56 124 131 145 188 187 188 189 189 189 189 188 199 187 170 173 186 183 181 183 185 186 188 190 191 191 192 190 191 191
357 358 356 0 5 8 5 9 12 9 17 29 45 84 117 93 165 185 186 186 186 186 187 186 192 194 174 183 185 184 183 182 182 187 186 189 192 193 193 195 195 195 195
359 1 360 4 6 7 13 12 12 11 23 39 55 92 112 104 147 180 184 183 184 184 184 184 196 189 172 174 176 183 185 185 182 186 188 189 192 195 196 198 199 200 200
3 4 3 7 11 10 12 20 20 16 26 51 71 91 118 125 146 173 179 179 182 182 182 183 189 189 183 177 183 184 186 186 185 184 189 190 193 196 199 200 202 203 206
6 7 6 12 18 15 14 26 25 25 31 55 85 101 112 125 147 168 174 177 179 181 182 182 184 176 174 180 183 181 184 187 188 187 187 191 193 196 200 201 203 205 209
8 11 11 16 23 24 25 31 35 30 35 59 92 107 125 133 148 164 173 176 178 181 183 182 186 174 182 181 182 181 187 187 190 190 187 192 194 197 200 201 203 206 210
10 14 15 19 24 32 33 35 42 31 41 61 96 117 122 138 152 165 172 176 177 178 182 191 184 182 190 189 192 183 186 191 192 193 188 194 195 199 200 201 203 205 207
13 16 20 22 27 32 38 42 52 38 49 64 96 122 122 137 156 167 171 173 175 177 183 192 194 181 191 190 187 185 191 194 197 198 187 196 197 201 202 203 203 204 206
15 18 21 26 31 34 36 52 58 53 48 63 90 119 123 140 161 169 174 175 177 177 181 180 176 181 190 189 187 190 196 198 199 202 195 197 200 201 204 205 204 205 207
18 20 22 27 32 39 41 55 60 72 58 65 81 111 126 138 167 172 176 180 177 179 179 167 176 171 179 190 194 199 198 201 203 203 204 201 205 206 206 208 208 209 211
19 21 23 26 31 39 43 53 64 75 73 69 76 103 128 134 165 175 178 178 180 180 190 170 165 172 170 188 204 203 201 204 206 207 206 207 208 210 211 211 209 212 216
21 22 24 27 32 39 46 50 61 77 81 79 78 92 124 135 152 168 177 182 182 191 199 178 167 176 181 185 191 201 208 213 210 206 207 212 214 215 214 214 216 216 216
22 23 24 28 32 39 46 52 61 68 85 88 92 91 109 147 155 155 162 176 182 183 199 191 190 181 187 185 188 190 198 199 203 204 209 212 213 212 216 217 217 221 221
23 25 27 30 33 38 43 51 57 70 78 93 97 101 100 117 149 157 159 165 175 186 206 197 165 168 174 191 189 195 191 202 208 211 214 215 216 218 219 219 220 221 223